TimeEDT,TemperatureF,Dew PointF,Humidity,Sea Level PressureIn,VisibilityMPH,Wind Direction,Wind SpeedMPH,Gust SpeedMPH,PrecipitationIn,Events,Conditions,WindDirDegrees,DateUTC
12:15 AM,43.0,34.3,72,29.82,10.0,WSW,11.5,-,N/A,,Overcast,250,2013-03-12 04:15:00
12:35 AM,42.3,34.3,74,29.82,10.0,West,9.2,-,N/A,,Overcast,260,2013-03-12 04:35:00
12:55 AM,41.4,34.5,77,29.82,10.0,West,10.4,-,N/A,,Overcast,260,2013-03-12 04:55:00
1:15 AM,41.4,34.3,76,29.83,10.0,West,8.1,-,N/A,,Overcast,260,2013-03-12 05:15:00
1:35 AM,41.4,33.4,73,29.83,10.0,West,13.8,-,N/A,,Overcast,260,2013-03-12 05:35:00
1:55 AM,41.0,32.9,73,29.83,10.0,West,11.5,18.4,N/A,,Overcast,260,2013-03-12 05:55:00
2:15 AM,40.5,32.9,74,29.84,10.0,WSW,10.4,-,N/A,,Overcast,250,2013-03-12 06:15:00
2:35 AM,40.3,32.4,73,29.85,10.0,West,13.8,20.7,N/A,,Overcast,260,2013-03-12 06:35:00
2:55 AM,40.3,31.5,71,29.86,10.0,West,15.0,19.6,N/A,,Overcast,270,2013-03-12 06:55:00
3:15 AM,40.1,31.1,70,29.86,10.0,West,16.1,21.9,N/A,,Overcast,260,2013-03-12 07:15:00
3:35 AM,39.6,31.5,73,29.87,10.0,West,13.8,-,N/A,,Light Drizzle,280,2013-03-12 07:35:00
3:55 AM,38.5,32.0,78,29.87,7.0,WSW,16.1,23.0,N/A,,Drizzle,250,2013-03-12 07:55:00
4:15 AM,37.0,32.0,82,29.87,10.0,West,9.2,-,N/A,,Overcast,270,2013-03-12 08:15:00
4:35 AM,37.2,32.0,81,29.87,10.0,West,6.9,-,N/A,,Overcast,260,2013-03-12 08:35:00
4:55 AM,37.8,32.0,80,29.87,10.0,West,12.7,18.4,N/A,,Overcast,260,2013-03-12 08:55:00
5:15 AM,38.1,31.5,77,29.88,10.0,WSW,10.4,-,N/A,,Overcast,250,2013-03-12 09:15:00
5:35 AM,37.6,31.5,79,29.87,7.0,West,11.5,-,N/A,,Overcast,260,2013-03-12 09:35:00
5:55 AM,37.0,31.6,81,29.88,7.0,West,10.4,-,N/A,,Overcast,260,2013-03-12 09:55:00
6:15 AM,36.3,31.3,82,29.90,10.0,WSW,9.2,-,N/A,,Overcast,250,2013-03-12 10:15:00
6:35 AM,35.6,31.3,84,29.91,10.0,West,10.4,-,N/A,,Overcast,260,2013-03-12 10:35:00
6:55 AM,36.3,30.0,78,29.92,10.0,West,11.5,-,N/A,,Overcast,270,2013-03-12 10:55:00
7:15 AM,36.5,29.3,75,29.92,10.0,West,12.7,-,N/A,,Overcast,260,2013-03-12 11:15:00
7:35 AM,36.5,28.9,74,29.92,10.0,WSW,9.2,-,N/A,,Overcast,250,2013-03-12 11:35:00
7:55 AM,36.5,28.9,74,29.93,10.0,WSW,8.1,-,N/A,,Overcast,240,2013-03-12 11:55:00
8:15 AM,36.5,29.3,75,29.93,10.0,WSW,8.1,-,N/A,,Overcast,240,2013-03-12 12:15:00
8:35 AM,36.5,29.5,76,29.93,10.0,WSW,5.8,-,N/A,,Overcast,240,2013-03-12 12:35:00
8:55 AM,36.5,29.8,77,29.94,10.0,SW,8.1,-,N/A,,Overcast,230,2013-03-12 12:55:00
9:35 AM,36.5,30.4,78,29.95,10.0,SW,6.9,-,N/A,,Overcast,230,2013-03-12 13:35:00
9:55 AM,36.9,30.4,77,29.95,10.0,SW,9.2,-,N/A,,Overcast,230,2013-03-12 13:55:00
10:15 AM,36.9,30.2,77,29.96,10.0,WSW,10.4,13.8,N/A,,Overcast,240,2013-03-12 14:15:00
10:35 AM,36.7,30.6,78,29.96,7.0,SW,10.4,-,N/A,,Overcast,230,2013-03-12 14:35:00
10:55 AM,37.0,31.3,80,29.96,10.0,SW,10.4,-,N/A,,Overcast,230,2013-03-12 14:55:00
11:15 AM,37.6,30.9,77,29.96,10.0,WSW,12.7,-,N/A,,Overcast,240,2013-03-12 15:15:00
11:35 AM,38.1,30.7,75,29.97,10.0,WSW,17.3,21.9,N/A,,Overcast,240,2013-03-12 15:35:00
11:55 AM,38.3,30.7,74,29.97,10.0,WSW,12.7,21.9,N/A,,Overcast,240,2013-03-12 15:55:00
12:15 PM,39.7,30.7,70,29.96,10.0,WSW,15.0,19.6,N/A,,Overcast,250,2013-03-12 16:15:00
12:35 PM,41.4,29.8,64,29.95,10.0,WSW,15.0,21.9,N/A,,Overcast,240,2013-03-12 16:35:00
12:55 PM,41.7,29.1,61,29.96,10.0,SW,15.0,19.6,N/A,,Overcast,220,2013-03-12 16:55:00
1:15 PM,40.3,28.8,63,29.97,10.0,WSW,17.3,21.9,N/A,,Overcast,240,2013-03-12 17:15:00
1:35 PM,39.6,27.9,63,29.98,10.0,WSW,19.6,-,N/A,,Overcast,250,2013-03-12 17:35:00
1:55 PM,39.2,28.0,64,29.98,10.0,West,15.0,-,N/A,,Overcast,260,2013-03-12 17:55:00
2:15 PM,39.2,28.4,65,29.97,10.0,WSW,16.1,-,N/A,,Overcast,240,2013-03-12 18:15:00
2:35 PM,38.8,28.2,66,29.97,10.0,SW,17.3,20.7,N/A,,Overcast,230,2013-03-12 18:35:00
2:55 PM,39.2,28.6,66,29.97,10.0,WSW,13.8,20.7,N/A,,Overcast,240,2013-03-12 18:55:00
3:15 PM,39.4,28.2,64,29.96,10.0,WSW,15.0,21.9,N/A,,Overcast,250,2013-03-12 19:15:00
3:35 PM,39.4,28.2,64,29.96,10.0,WSW,15.0,-,N/A,,Overcast,250,2013-03-12 19:35:00
3:55 PM,39.9,28.2,63,29.96,10.0,WSW,17.3,-,N/A,,Overcast,250,2013-03-12 19:55:00
4:15 PM,39.4,28.4,65,29.96,10.0,WSW,13.8,19.6,N/A,,Overcast,250,2013-03-12 20:15:00
4:35 PM,39.9,28.6,64,29.96,10.0,WSW,12.7,-,N/A,,Overcast,250,2013-03-12 20:35:00
4:55 PM,39.7,28.6,64,29.97,10.0,SW,12.7,19.6,N/A,,Overcast,230,2013-03-12 20:55:00
5:15 PM,39.9,28.6,64,29.97,10.0,WSW,13.8,19.6,N/A,,Overcast,240,2013-03-12 21:15:00
5:35 PM,40.3,28.8,63,29.97,10.0,WSW,13.8,18.4,N/A,,Overcast,240,2013-03-12 21:35:00
5:55 PM,40.1,28.9,64,29.98,10.0,SW,13.8,-,N/A,,Overcast,230,2013-03-12 21:55:00
6:15 PM,39.9,28.8,64,29.97,10.0,SW,9.2,16.1,N/A,,Overcast,230,2013-03-12 22:15:00
6:35 PM,40.1,29.1,65,29.98,10.0,SW,8.1,-,N/A,,Overcast,230,2013-03-12 22:35:00
6:55 PM,40.1,29.3,65,29.98,10.0,SSW,9.2,-,N/A,,Overcast,210,2013-03-12 22:55:00
7:15 PM,39.7,30.0,68,29.98,10.0,SW,5.8,-,N/A,,Overcast,220,2013-03-12 23:15:00
7:35 PM,39.4,29.8,69,29.98,10.0,SW,4.6,-,N/A,,Overcast,220,2013-03-12 23:35:00
7:55 PM,39.0,29.5,69,29.98,10.0,SSW,3.5,-,N/A,,Overcast,210,2013-03-12 23:55:00
8:15 PM,38.7,29.7,70,29.99,10.0,SSW,3.5,-,N/A,,Overcast,200,2013-03-13 00:15:00
8:35 PM,38.5,29.7,71,29.99,10.0,South,4.6,-,N/A,,Overcast,170,2013-03-13 00:35:00
8:55 PM,37.9,31.1,76,29.99,10.0,South,3.5,-,N/A,,Overcast,170,2013-03-13 00:55:00
9:15 PM,38.3,31.3,76,29.99,10.0,SW,6.9,-,N/A,Rain,Rain,220,2013-03-13 01:15:00
9:35 PM,38.8,31.1,74,30.01,5.0,WSW,15.0,19.6,N/A,Rain,Rain,250,2013-03-13 01:35:00
9:55 PM,36.5,31.5,82,30.00,10.0,SW,11.5,19.6,N/A,,Overcast,230,2013-03-13 01:55:00
10:15 PM,36.3,32.0,84,30.01,10.0,WSW,11.5,-,N/A,,Overcast,250,2013-03-13 02:15:00
10:35 PM,36.5,32.0,84,30.01,10.0,WSW,8.1,-,N/A,,Overcast,240,2013-03-13 02:35:00
10:55 PM,36.5,32.0,84,30.00,10.0,SSW,6.9,-,N/A,,Overcast,210,2013-03-13 02:55:00
11:15 PM,36.0,32.0,86,30.00,10.0,SW,4.6,-,N/A,,Overcast,220,2013-03-13 03:15:00
11:35 PM,35.8,31.8,86,30.00,10.0,SSW,4.6,-,N/A,,Overcast,200,2013-03-13 03:35:00
11:55 PM,35.2,31.5,86,29.99,10.0,SSW,3.5,-,N/A,,Scattered Clouds,200,2013-03-13 03:55:00